Location: Newark
(43.6583°N, 1.6617°E)
Time: 01:15:39
(UTC+00:00)

Transit 4A - Pass Details

Date: 29 August 2019
Orbit: 865 x 980 km, 66.8° (Epoch: 20 September)

Event Time Altitude Azimuth Distance (km) Brightness Sun altitude
Rises 22:37:55 0° 332° (NNW) 3,652 12.0 -34.4°
Reaches altitude 10° 22:42:06 10° 358° (N) 2,681 11.0 -34.7°
Maximum altitude 22:45:05 14° 27° (NNE) 2,408 10.4 -34.9°
Drops below altitude 10° 22:48:01 10° 56° (NE) 2,639 10.4 -35.0°
Enters shadow 22:48:32 - 60° (ENE) 2,724 10.4 -35.1°
